Location: Olomouc
(49.5830°N, 17.2500°E)
Time: 21:03:41
(UTC+02:00)

ISS - Pass Details

Date: 12 May 2021
Orbit: 417 x 422 km, 51.6° (Epoch: 14 June)

Event Time Altitude Azimuth Distance (km) Brightness Sun altitude
Rises 04:24:40 0° 289° (WNW) 2,375 -0.3 -7.0°
Reaches altitude 10° 04:26:48 10° 284° (WNW) 1,509 -1.3 -6.7°
Maximum altitude 04:30:07 53° 207° (SSW) 526 -3.6 -6.3°
Drops below altitude 10° 04:33:25 10° 130° (SE) 1,505 -0.8 -5.9°
Sets 04:35:32 0° 125° (SE) 2,367 0.3 -5.6°
